SCP
0 0 0 0 0 0 0 0 0 0 0 0 0 0 0 0 0 0 0 0 0 0 0 0 0 0 0 0 0 0 0 0 0 0 0 0 0 0 0 0 0 0 0 0 0 0 0 0 0
0 0 0 0 0 0 0 0 0 0 0 0 0 0 0 0 0 0 0 0 0 0 0 0 0 0 0 0 0 0 0 0 0 0 0 0 0 0 0 0 0 0 0 0 0 0 0 0 0
0 0 0 0 0 0 0 0 0 0 0 0 0 0 0 0 0 0 0 0 0 0 0 0 0 0 0 0 0 0 0 0 0 0 0 0 0 0 0 0 0 0 0 0 0 0 0 0 0
0 0 0 0 0 0 0 0 0 0 0 0 0 0 0 0 0 0 0 0 0 0 0 0 0 0 0 0 0 0 0 0 0 0 0 0 0 0 0 0 0 0 0 0 0 0 0 0 0
0 0 0 0 0 0 0 0 0 0 0 0 0 0 0 0 0 0 0 0 0 0 0 0 0 0 0 0 0 0 0 0 0 0 0 0 0 0 0 0 0 0 0 0 0 0 0 0 0
0 0 0 0 0 0 0 0 0 0 0 0 0 0 0 0 0 0 0 0 0 0 0 0 0 0 0 0 0 0 0 0 0 0 0 0 0 0 0 0 0 0 0 0 0 0 0 0 0
0 0 0 0 0 0 0 0 0 0 0 0 0 0 0 0 0 0 0 0 0 0 0 0 0 0 0 0 0 0 0 0 0 0 0 0 0 0 0 0 0 0 0 0 0 0 0 0 0
0 0 0 0 0 0 0 0 0 0 0 0 0 0 0 0 0 0 0 0 0 0 0 0 0 0 0 0 0 0 0 0 0 0 0 0 0 0 0 0 0 0 0 0 0 0 0 0 0
0 0 0 0 0 0 0 0 0 0 0 0 0 0 0 0 0 0 0 0 0 0 0 0 0 0 0 0 0 0 0 0 0 0 0 0 0 0 0 0 0 0 0 0 0 0 0 0 0
0 0 0 0 0 0 0 0 0 0 0 0 0 0 0 0 0 0 0 0 0 0 0 0 0 0 0 0 0 0 0 0 0 0 0 0 0 0 0 0 0 0 0 0 0 0 0 0 0
0 0 0 0 0 0 0 0 0 0 0 0 0 0 0 0 0 0 0 0 0 0 0 0 0 0 0 0 0 0 0 0 0 0 0 0 0 0 0 0 0 0 0 0 0 0 0 0 0
0 0 0 0 0 0 0 0 0 0 0 0 0 0 0 0 0 0 0 0 0 0 0 0 0 0 0 0 0 0 0 0 0 0 0 0 0 0 0 0 0 0 0 0 0 0 0 0 0
0 0 0 0 0 0 0 0 0 0 0 0 0 0 0 0 0 0 0 0 0 0 0 0 0 0 0 0 0 0 0 0 0 0 0 0 0 0 0 0 0 0 0 0 0 0 0 0 0
0 0 0 0 0 0 0 0 0 0 0 0 0 0 0 0 0 0 0 0 0 0 0 0 0 0 0 0 0 0 0 0 0 0 0 0 0 0 0 0 0 0 0 0 0 0 0 0 0
0 0 0 0 0 0 0 0 0 0 0 0 0 0 0 0 0 0 0 0 0 0 0 0 0 0 0 0 0 0 0 0 0 0 0 0 0 0 0 0 0 0 0 0 0 0 0 0 0
0 0 0 0 0 0 0 0 0 0 0 0 0 0 0 0 0 0 0 0 0 0 0 0 0 0 0 0 0 0 0 0 0 0 0 0 0 0 0 0 0 0 0 0 0 0 0 0 0
0 0 0 0 0 0 0 0 0 0 0 0 0 0 0 0 0 0 0 0 0 0 0 0 0 0 0 0 0 0 0 0 0 0 0 0 0 0 0 0 0 0 0 0 0 0 0 0 0
0 0 0 0 0 0 0 0 0 0 0 0 0 0 0 0 0 0 0 0 0 0 0 0 0 0 0 0 0 0 0 0 0 0 0 0 0 0 0 0 0 0 0 0 0 0 0 0 0
0 0 0 0 0 0 0 0 0 0 0 0 0 0 0 0 0 0 0 0 0 0 0 0 0 0 0 0 0 0 0 0 0 0 0 0 0 0 0 0 0 0 0 0 0 0 0 0 0
0 0 0 0 0 0 0 0 0 0 0 0 0 0 0 0 0 0 0 0 0 0 0 0 0 0 0 0 0 0 0 0 0 0 0 0 0 0 0 0 0 0 0 0 0 0 0 0 0
0 0 0 0 0 0 0 0 0 0 0 0 0 0 0 0 0 0 0 0 0 0 0 0 0 0 0 0 0 0 0 0 0 0 0 0 0 0 0 0 0 0 0 0 0 0 0 0 0
0 0 0 0 0 0 0 0 0 0 0 0 0 0 0 0 0 0 0 0 0 0 0 0 0 0 0 0 0 0 0 0 0 0 0 0 0 0 0 0 0 0 0 0 0 0 0 0 0
0 0 0 0 0 0 0 0 0 0 0 0 0 0 0 0 0 0 0 0 0 0 0 0 0 0 0 0 0 0 0 0 0 0 0 0 0 0 0 0 0 0 0 0 0 0 0 0 0
0 0 0 0 0 0 0 0 0 0 0 0 0 0 0 0 0 0 0 0 0 0 0 0 0 0 0 0 0 0 0 0 0 0 0 0 0 0 0 0 0 0 0 0 0 0 0 0 0
0 0 0 0 0 0 0 -0 0 0 0 0 0 0 0 0 0 0 0 0 0 0 0 0 0 0 0 0 0 0 0 0 0 0 0 0 0 0 0 0 0 0 0 0 0 0 0 0 0
0 0 0 0 0 0 0 0 0 0 0 0 0 0 0 0 0 0 0 0 0 0 0 0 0 0 0 0 0 0 0 0 0 0 0 0 0 0 0 0 0 0 0 0 0 0 0 0 0
0 0 0 0 0 0 0 0 0 0 0 0 0 0 0 0 0 0 0 0 0 0 0 0 0 0 0 0 0 0 0 0 0 0 0 0 0 0 0 0 0 0 0 0 0 0 0 0 0
0 0 0 0 0 0 0 0 0 0 0 0 0 0 0 0 0 0 0 0 0 0 0 0 0 0 0 0 0 0 0 0 0 0 0 0 0 0 0 0 0 0 0 0 0 0 0 0 0
0 0 0 0 0 0 0 0 0 0 0 0 0 0 0 0 0 0 0 0 0 0 0 0 0 0 0 0 0 0 0 0 0 0 0 0 0 0 0 0 0 0 0 0 0 0 0 0 0
0 0 0 0 0 0 0 0 0 0 0 0 0 0 0 0 0 0 0 0 0 0 0 0 0 0 0 0 0 0 0 0 0 0 0 0 0 0 0 0 0 0 0 0 0 0 0 0 0
Wind_Speed
2 2 2 3 4 3 4 2 2 3 2 1 1 3 4 5 6 5 3 6 8 13 16 16 13 16 16 14 13 12 11 12 12 12 11 11 10 10 9 9 9 9 9 9 8 8 8 8 8
3 2 2 2 4 4 1 1 2 3 2 1 3 4 6 6 5 4 2 8 10 13 15 15 13 15 16 15 14 12 12 12 13 12 11 10 9 7 7 7 6 7 8 8 8 7 7 7 7
1 2 2 2 4 4 3 1 2 2 4 4 4 4 5 4 2 1 2 9 10 12 13 13 11 14 15 15 14 13 12 12 13 13 11 10 8 6 5 5 5 6 7 7 7 7 7 7 7
1 1 1 4 7 6 7 8 7 7 3 5 4 5 5 4 1 2 3 11 11 13 12 12 11 13 14 15 15 14 14 13 13 12 11 9 8 7 6 6 6 7 7 7 7 7 7 7 7
0 1 3 4 6 5 6 7 5 5 3 3 4 5 5 3 1 1 5 11 12 13 12 13 12 12 12 13 15 14 14 14 13 12 10 9 9 8 8 8 8 8 7 7 7 8 8 8 8
2 2 3 4 4 5 5 5 4 5 3 2 4 5 5 3 3 2 6 10 11 12 12 12 12 11 11 11 12 13 14 13 12 11 10 10 10 10 10 9 9 8 8 8 8 8 8 8 8
3 3 3 4 5 5 2 2 4 4 4 3 3 5 4 3 2 2 5 9 10 11 11 11 14 13 11 10 11 11 11 11 11 11 11 10 10 11 10 9 9 9 9 9 9 8 8 8 8
2 3 4 4 5 4 2 3 4 5 5 1 4 7 5 3 3 4 5 8 10 11 12 13 13 14 14 13 12 11 11 11 10 10 10 10 9 9 8 8 9 10 10 10 9 9 9 9 9
3 5 6 6 6 5 4 5 4 4 6 5 8 10 5 4 4 6 7 9 11 12 13 14 14 14 13 13 12 12 11 11 11 10 11 11 10 10 9 10 9 10 10 10 10 9 9 9 9
5 6 8 5 6 4 4 6 5 6 11 10 10 12 7 6 7 10 12 14 16 18 18 15 16 15 14 11 10 11 11 11 12 11 12 10 9 7 7 7 7 9 9 10 10 10 8 5 4
7 9 7 7 7 5 5 7 6 9 13 13 13 12 9 11 12 13 15 16 17 17 17 17 17 16 15 11 10 8 8 9 12 13 13 10 9 7 7 6 7 8 9 8 8 7 4 3 3
8 10 9 6 4 5 7 6 7 13 18 16 14 14 13 13 15 16 17 17 15 15 18 18 18 16 16 14 11 10 9 9 9 12 14 11 8 8 8 6 7 7 5 6 5 4 5 4 4
10 9 8 10 9 9 10 15 14 20 23 20 16 15 17 17 17 15 15 15 15 16 17 18 19 19 17 15 12 12 12 12 12 11 13 14 10 10 9 8 7 7 6 6 5 5 6 5 5
6 8 9 8 9 7 12 20 13 22 17 13 13 14 14 15 17 15 14 16 16 18 17 16 19 20 18 16 15 13 13 12 13 12 15 16 12 10 10 10 9 8 7 6 6 6 6 5 4
3 9 15 13 11 8 7 15 15 19 11 13 15 14 13 14 15 17 16 15 16 17 16 17 18 19 20 20 18 13 13 13 13 12 15 16 14 13 11 10 9 8 7 7 6 7 5 5 5
4 7 12 8 6 6 9 16 15 3 6 13 16 18 18 19 19 17 15 15 15 15 16 17 14 18 21 19 18 13 13 14 13 12 13 17 17 15 12 10 10 9 8 8 7 7 6 5 5
8 12 14 13 6 7 12 13 13 5 8 17 20 21 21 23 23 17 13 13 14 15 15 16 18 19 20 19 15 14 13 13 12 12 12 15 17 16 13 11 10 11 8 8 8 7 6 6 6
14 15 13 13 6 6 11 16 18 19 20 23 23 22 21 21 19 14 12 11 12 12 13 14 15 18 16 14 13 12 13 13 12 12 13 16 15 17 15 11 12 12 9 9 9 9 6 6 6
14 17 21 20 16 11 19 22 20 21 23 24 24 22 19 14 12 10 10 10 10 9 9 10 13 13 13 11 12 13 13 12 12 12 14 16 16 17 16 11 13 12 11 12 12 9 10 7 7
15 19 23 21 14 11 17 21 18 19 23 23 22 19 14 12 11 11 12 12 12 12 11 9 9 10 12 11 10 9 10 10 11 10 13 16 16 17 15 15 13 14 12 14 14 12 9 7 9
17 17 19 20 15 9 12 14 9 10 15 18 18 13 8 7 10 13 14 15 16 16 15 11 9 7 10 11 8 7 7 7 9 11 11 14 15 16 16 17 15 15 14 14 16 15 14 10 10
18 14 16 16 13 9 4 13 6 10 15 16 11 5 8 11 13 14 16 18 19 18 16 15 12 7 5 8 9 11 10 10 10 8 9 11 14 15 16 17 17 16 14 15 15 15 13 12 11
11 5 5 7 9 12 7 12 9 8 12 11 3 9 12 14 15 17 18 18 19 18 17 16 15 11 6 4 8 10 10 9 7 7 9 11 12 14 16 17 16 16 14 15 16 16 15 12 12
4 2 3 3 6 14 10 12 10 8 9 1 8 13 14 15 16 17 17 17 18 19 19 18 17 16 12 6 6 9 11 10 10 9 8 9 9 11 16 16 16 16 14 16 16 16 18 14 13
4 4 6 7 7 10 2 8 9 8 2 5 10 13 14 15 15 16 18 19 19 20 20 19 20 19 16 12 8 7 9 11 12 11 10 10 9 10 14 15 16 15 16 16 15 16 17 18 17
6 7 8 8 11 14 3 11 7 2 5 9 12 12 13 14 14 15 15 16 16 17 18 18 19 18 18 16 13 9 9 8 8 10 10 10 9 10 12 15 16 17 17 16 16 15 16 16 17
6 8 6 5 7 14 15 11 6 3 6 10 11 11 12 12 12 13 13 14 14 15 16 16 16 16 17 16 15 13 11 9 10 11 11 10 11 10 13 14 16 17 17 17 17 14 17 16 17
6 3 2 5 8 13 18 21 15 6 5 7 8 9 9 9 10 11 11 12 12 12 13 14 15 15 15 15 13 11 13 12 11 10 11 12 13 12 13 14 16 17 17 17 18 16 17 17 17
8 7 10 9 8 10 14 15 2 6 6 6 6 6 7 7 8 8 9 9 10 10 12 13 13 14 14 14 13 13 13 13 12 10 11 11 12 13 13 14 15 16 17 18 18 19 18 20 19
18 21 19 17 17 15 15 16 6 9 7 6 5 4 4 6 7 8 9 10 10 11 12 12 12 13 13 13 12 12 12 12 12 12 12 12 12 12 13 14 15 16 17 18 19 20 20 21 21
Wind_Direction
48 1 288 264 259 255 270 267 269 286 264 295 208 238 269 275 286 327 64 164 169 164 168 171 177 174 173 172 170 169 170 167 161 152 142 134 126 119 114 110 106 105 102 98 94 88 82 76 72
23 327 267 276 276 275 292 246 261 302 332 273 216 233 253 259 264 301 155 169 175 169 171 177 173 176 175 175 175 177 180 176 166 155 146 140 134 132 131 123 115 113 109 103 98 94 87 78 71
77 344 304 260 262 289 338 47 325 308 271 244 239 235 264 269 216 256 79 165 174 174 178 176 174 180 179 179 180 183 187 178 166 156 150 148 146 150 154 151 138 126 118 113 108 103 96 87 79
230 175 227 260 264 271 277 297 310 295 251 220 258 249 235 243 262 49 130 168 175 176 181 177 182 186 186 185 185 187 183 175 165 158 157 158 162 167 170 170 158 143 135 128 120 114 104 96 87
171 227 241 257 270 274 272 298 294 277 265 199 235 267 262 169 160 141 164 173 178 177 183 182 182 187 188 187 187 183 178 172 167 166 167 173 179 180 180 176 168 158 149 140 131 121 113 104 93
149 204 246 274 279 278 278 273 270 267 271 227 233 263 271 131 194 177 175 180 184 181 186 188 181 186 184 186 184 180 177 174 174 176 178 182 185 185 184 181 175 168 160 149 136 127 120 109 98
194 208 253 271 285 285 267 216 249 277 267 241 225 254 260 171 129 155 180 184 188 189 193 196 192 192 189 188 185 182 180 182 182 185 185 183 182 185 187 184 180 173 163 150 140 133 122 111 100
213 215 225 238 252 266 219 215 243 256 283 200 218 245 263 106 104 151 172 190 195 198 202 201 201 200 199 197 193 190 187 187 185 187 182 172 175 185 184 183 181 175 163 152 145 136 125 113 102
203 225 233 227 227 241 211 231 226 237 257 230 226 244 285 111 152 173 182 197 204 207 208 206 205 206 206 206 201 200 196 192 185 187 171 170 189 190 184 189 180 173 161 156 148 137 123 115 104
206 232 237 222 221 241 229 246 268 252 258 252 240 240 226 208 209 211 208 206 206 209 206 207 208 207 207 207 206 208 207 202 199 196 186 189 191 187 187 175 181 162 154 157 150 133 127 133 121
215 235 242 232 232 248 258 256 249 256 266 258 259 266 239 224 226 227 227 223 218 213 204 206 208 207 206 204 204 203 202 203 202 198 190 185 183 179 186 179 171 164 163 163 147 148 155 145 124
229 243 246 250 216 221 244 260 252 243 258 279 284 284 276 252 239 232 233 231 227 220 212 206 204 206 206 204 202 201 198 198 197 195 189 185 185 185 185 185 180 174 172 163 161 157 149 138 128
231 254 247 247 244 252 262 259 267 265 265 276 279 273 267 265 260 250 245 245 236 229 221 212 205 205 203 204 204 203 201 199 198 193 192 192 189 189 186 185 183 181 172 171 167 163 156 150 143
257 261 269 258 247 239 246 265 259 263 274 281 274 270 268 265 266 264 248 242 238 236 230 219 212 209 205 205 205 204 203 200 199 195 195 195 193 190 187 186 186 184 179 173 171 166 162 156 151
289 283 279 256 237 237 226 260 243 258 281 282 284 286 286 277 267 259 255 248 242 239 235 225 219 213 211 210 210 208 205 202 201 198 197 195 195 191 189 187 188 185 175 166 164 163 163 158 157
257 257 269 257 205 195 201 258 270 288 271 283 292 296 296 290 279 270 266 262 254 243 233 225 215 215 215 214 213 211 208 204 203 200 197 197 196 192 189 188 189 180 173 172 169 167 167 168 168
234 256 262 277 219 189 216 257 281 298 278 286 289 290 288 287 286 293 292 276 263 249 238 227 216 216 216 215 216 214 212 210 208 204 199 198 197 194 191 190 184 176 177 177 172 173 172 171 165
256 256 262 267 272 212 234 259 278 287 287 284 283 280 278 279 293 316 317 299 280 263 246 234 223 219 216 214 217 218 217 214 213 211 206 199 197 194 193 191 182 178 178 179 178 171 172 166 151
280 279 276 274 275 274 272 276 279 281 280 278 277 275 276 294 321 338 333 326 315 302 277 251 236 223 212 207 207 211 214 213 214 215 211 206 201 196 196 189 183 183 186 184 178 167 167 164 158
261 269 275 281 281 273 281 284 281 268 266 269 275 281 301 323 340 4 11 9 358 346 334 304 262 234 216 213 210 216 219 219 217 216 216 212 207 201 199 193 187 188 188 186 183 176 175 169 185
252 258 273 283 298 269 287 281 256 255 258 263 268 282 316 347 10 25 27 24 18 11 360 346 318 263 225 214 210 208 221 231 219 217 217 214 212 208 205 201 193 192 192 191 189 187 183 180 190
266 265 271 281 286 284 305 296 246 247 265 266 277 340 29 38 37 34 32 28 23 15 10 8 0 337 260 217 213 210 214 223 227 222 219 214 213 214 212 209 203 198 197 195 193 193 195 188 187
258 310 279 268 266 275 242 267 282 216 252 264 330 46 50 45 42 39 34 30 26 21 20 17 18 17 355 246 228 229 236 243 247 235 225 217 211 216 218 217 211 205 203 200 194 193 197 198 195
242 285 267 234 257 270 255 239 283 205 227 233 65 54 47 45 45 42 38 35 30 27 27 25 25 25 13 343 270 250 251 253 252 243 234 221 212 214 219 221 217 213 208 205 199 196 199 201 204
184 242 286 276 251 271 135 233 262 233 262 45 56 57 52 46 43 37 33 32 30 29 28 28 28 26 19 10 341 299 277 268 261 256 245 233 221 215 215 215 218 218 215 210 204 202 203 204 205
196 214 236 266 276 286 240 246 255 284 62 72 74 69 56 47 41 39 34 32 30 29 28 28 29 26 21 17 5 344 313 287 275 267 259 248 237 229 221 215 218 220 218 215 209 210 209 208 210
194 218 244 246 272 278 266 255 256 191 99 81 70 61 51 43 37 35 32 30 28 28 27 26 26 24 21 18 13 4 349 321 297 284 271 263 253 244 230 221 221 222 220 217 213 216 213 211 212
241 243 184 221 239 254 266 271 268 203 139 83 63 54 47 40 35 31 29 26 25 24 23 25 25 22 17 14 13 8 4 350 330 308 290 276 266 256 242 230 224 224 223 220 218 220 218 214 214
228 217 227 237 228 246 263 268 354 136 126 109 82 60 44 35 30 28 26 23 22 20 19 19 18 16 12 9 6 5 4 360 352 336 315 298 283 268 252 239 230 226 223 220 222 223 220 218 217
252 247 240 242 242 240 253 260 114 124 120 117 104 75 47 29 24 20 17 15 15 15 14 13 10 10 5 1 0 1 1 360 357 348 335 320 300 282 264 251 240 233 227 223 223 225 225 221 219